Theta_e
284 286 286 285 284 285 283 284 281 284 285 290 293 294 296 298 303 311 315 317 319 320 321 321 321 322 323 322 321 323 323 322 322 322 322 323 322 322 323 323 323 325 324 323
282 285 286 284 286 286 286 286 285 286 286 293 296 297 302 302 306 312 316 318 320 320 322 321 321 322 323 321 321 323 322 322 322 322 323 323 322 322 323 324 324 325 322 321
278 284 284 279 284 286 287 288 287 283 288 293 294 302 304 304 311 313 317 319 320 321 322 322 322 322 321 321 321 323 323 323 323 324 323 323 323 323 323 323 322 321 320 320
278 282 273 286 294 293 289 289 291 291 292 295 302 304 306 310 313 313 318 320 321 321 322 322 322 321 320 320 322 322 323 324 324 324 323 323 323 322 321 321 320 319 318 318
279 278 283 286 290 290 289 288 294 295 297 300 303 304 305 314 316 316 318 320 321 322 321 321 321 320 320 320 322 323 323 323 324 324 323 323 321 320 319 319 319 318 318 317
282 277 276 286 290 294 294 285 298 298 298 300 302 296 303 312 316 317 319 321 321 321 320 319 318 319 319 319 321 322 324 324 324 324 324 322 320 319 320 320 319 318 316 317
281 279 284 289 290 292 286 285 298 298 300 300 299 304 305 311 313 316 319 320 321 321 319 319 317 319 318 320 321 323 325 324 324 324 324 322 320 321 320 320 318 317 315 316
283 281 278 291 289 287 293 299 299 299 299 300 303 303 307 310 314 317 317 321 321 319 317 316 317 319 318 319 322 324 325 323 323 323 325 322 321 320 320 320 318 315 314 314
284 283 291 293 291 295 296 298 299 300 301 301 303 304 308 309 312 316 320 320 322 320 316 316 318 319 318 320 322 323 323 322 322 323 323 322 320 319 318 319 318 316 316 315
288 291 292 295 296 299 301 299 302 302 302 303 303 307 308 311 315 319 320 321 320 317 316 314 317 317 319 317 323 323 322 321 322 322 321 322 321 320 319 320 320 318 316 315
289 293 294 295 297 299 301 302 302 306 307 306 308 309 310 313 315 319 320 319 319 317 316 316 316 316 316 318 323 322 322 322 323 321 322 321 319 318 320 320 319 319 319 319
287 294 293 294 298 301 301 302 303 305 307 309 310 310 313 314 317 318 319 318 317 316 316 316 316 315 315 319 323 322 321 322 322 322 322 321 317 315 295 301 301 303 304 314
294 298 298 299 302 304 303 304 305 304 306 307 309 311 311 315 318 316 318 320 320 317 317 317 316 315 317 321 322 322 322 322 322 320 322 320 319 318 317 307 295 297 297 298
299 299 297 300 299 302 303 305 305 305 306 307 308 310 311 312 317 316 314 313 315 322 319 318 317 316 317 322 322 323 323 308 324 323 323 321 320 320 320 318 318 316 299 300
298 299 299 300 300 299 301 302 301 301 303 303 305 306 308 311 309 310 311 312 310 311 313 319 319 319 319 322 322 322 322 322 324 324 323 319 320 320 320 319 318 315 311 302
296 298 298 297 297 297 298 299 298 299 301 302 302 304 307 307 308 308 309 311 307 306 308 308 309 312 320 323 322 322 322 311 316 323 320 319 318 318 317 317 317 316 316 314
293 293 295 294 294 295 296 297 297 297 299 300 301 303 304 305 304 304 305 307 309 307 308 308 304 309 317 323 322 322 322 318 307 322 321 320 319 318 318 316 316 317 319 312
296 299 299 296 294 294 296 297 297 296 297 300 301 301 300 301 301 301 302 304 307 307 304 307 306 308 312 310 321 323 322 321 321 322 322 321 320 319 317 316 315 317 319 309
297 298 298 296 295 295 295 295 297 297 297 298 298 297 298 299 301 302 301 299 299 299 298 302 299 307 311 309 311 322 322 320 321 322 322 310 316 319 317 316 316 316 317 313
297 298 298 297 296 295 294 295 296 297 297 297 296 295 295 296 297 299 300 296 295 295 298 299 302 304 307 310 305 322 323 322 320 321 321 320 320 320 319 308 317 317 316 316
299 298 297 296 295 295 294 294 294 293 295 296 295 293 293 295 294 294 294 293 294 293 296 296 298 298 307 305 313 321 322 321 321 319 318 319 319 320 321 320 318 319 318 317
298 297 296 296 295 294 294 293 294 293 293 293 294 294 293 292 293 293 292 291 294 288 294 296 295 290 297 295 304 306 310 311 313 316 318 317 316 316 316 317 318 319 319 319
298 298 297 296 294 293 293 293 292 293 292 291 291 292 291 291 291 290 289 291 293 289 293 293 289 288 290 299 299 300 301 302 303 304 307 309 311 312 311 311 312 311 311 313
298 297 295 295 294 293 291 292 291 292 292 292 291 292 291 291 290 293 293 289 288 289 290 289 289 288 291 296 295 295 295 296 298 298 300 298 305 304 303 305 307 306 306 305
298 296 295 293 292 290 291 291 291 290 291 290 291 291 291 292 290 291 292 291 288 289 290 288 288 289 293 293 293 292 293 293 293 295 295 296 296 299 300 299 298 300 300 302
296 295 295 294 292 291 290 290 288 289 289 289 289 290 290 291 291 291 291 289 289 288 289 289 289 291 291 291 291 291 290 291 291 291 292 293 293 293 294 294 295 295 295 295
297 294 294 293 292 291 290 289 288 288 288 289 288 289 290 290 289 289 288 289 289 288 288 288 288 288 289 289 289 290 290 290 288 290 291 291 291 291 291 292 292 292 293 292
Wind_Speed
8 12 12 13 15 13 13 10 9 4 7 4 18 16 16 16 16 14 5 7 10 8 7 10 10 9 9 9 8 7 7 6 6 5 5 5 5 5 5 5 4 4 5 5
9 12 15 17 15 16 19 16 20 16 20 6 18 11 15 18 15 10 6 8 8 9 9 10 12 11 10 9 8 7 7 6 5 5 5 5 5 5 5 5 4 5 5 5
5 3 6 10 18 20 19 19 11 18 10 8 16 10 15 13 10 8 8 9 10 10 10 9 11 11 10 9 7 6 7 6 6 6 6 5 5 5 5 5 5 5 5 5
5 4 6 4 3 13 22 23 15 15 10 11 5 10 15 19 14 8 8 10 10 9 9 6 6 9 8 8 8 7 6 7 6 6 6 5 5 5 5 5 5 4 4 4
4 6 8 12 4 5 6 4 8 4 8 8 9 13 20 15 9 7 7 10 9 9 8 7 7 7 10 8 8 7 7 7 7 7 7 6 5 5 4 5 4 3 4 4
4 4 4 2 8 11 11 5 7 7 7 9 10 8 8 3 4 5 6 9 11 11 8 9 7 7 9 8 9 8 8 8 7 7 7 6 6 6 3 4 4 5 5 4
10 5 5 5 14 13 6 1 4 5 10 9 8 8 16 16 9 6 5 6 10 12 12 11 9 9 8 8 10 8 6 8 7 6 6 6 6 3 5 6 6 5 5 3
3 3 3 12 12 5 8 3 5 8 10 14 14 15 13 10 7 6 7 6 12 11 9 9 11 10 8 10 7 7 7 8 7 7 5 5 6 4 6 6 6 5 5 3
3 3 6 11 9 15 14 8 6 11 13 14 15 15 10 7 6 7 11 8 12 13 11 10 11 11 10 7 8 8 8 8 7 6 5 6 6 6 5 5 5 5 4 4
8 2 7 11 10 11 9 9 12 12 14 14 13 11 7 7 5 6 11 10 10 12 11 10 10 10 10 9 8 9 8 8 7 7 6 5 4 4 5 5 5 5 5 4
5 6 12 5 15 10 11 13 14 15 11 12 9 5 4 6 8 2 8 8 11 13 11 12 11 10 8 10 10 8 8 7 7 6 6 5 4 3 4 3 5 6 5 5
4 14 8 12 13 12 10 14 18 19 15 12 7 5 8 9 7 7 6 8 6 8 10 10 12 11 9 10 11 10 8 6 6 6 5 5 6 4 9 3 8 6 9 6
5 14 13 11 8 14 11 16 23 20 15 10 5 9 11 8 9 9 11 10 5 5 8 10 10 11 9 10 10 10 9 7 6 6 6 6 5 5 5 4 8 6 4 8
7 10 7 12 8 11 12 12 15 16 14 9 10 13 15 10 11 16 13 15 12 6 5 7 7 10 11 11 11 10 9 11 9 7 6 6 5 5 4 5 4 3 6 3
10 8 6 7 9 12 9 10 10 13 13 15 15 14 15 13 15 13 16 13 12 13 13 6 5 5 8 11 12 10 8 7 7 6 6 6 5 4 4 4 3 4 3 5
7 7 7 10 10 10 9 10 10 13 14 14 13 14 17 11 12 15 14 14 16 13 14 13 10 8 2 9 10 8 8 13 10 8 7 6 5 5 4 4 4 4 6 5
5 7 6 9 10 10 10 8 10 10 12 13 13 13 13 14 16 19 17 16 12 12 13 11 13 12 9 7 11 8 7 8 9 7 7 7 7 6 5 4 4 5 6 7
3 4 4 5 6 8 10 10 10 12 13 13 12 12 13 15 13 13 10 8 8 10 13 12 13 12 11 9 3 6 8 8 8 8 7 7 7 6 6 6 6 5 5 5
3 6 6 7 8 8 9 11 12 11 11 11 11 13 10 10 9 10 11 12 13 11 13 14 16 11 10 12 4 4 5 7 8 6 7 7 6 7 7 6 6 6 6 7
3 4 5 6 7 7 8 9 11 11 10 9 11 11 12 12 10 10 10 14 14 9 13 15 12 10 11 12 7 3 5 4 8 7 7 7 7 7 7 7 8 7 7 7
3 5 6 6 6 6 6 7 8 10 11 11 10 11 11 10 11 12 11 9 14 15 13 13 12 10 9 9 10 9 7 4 1 3 3 3 4 5 6 7 7 7 7 7
3 4 6 6 5 5 5 6 6 9 10 11 11 11 11 12 11 10 13 10 8 13 10 10 10 11 8 9 11 11 11 10 9 8 9 7 5 4 3 3 2 2 2 3
4 4 5 5 5 5 5 7 7 10 11 11 12 12 11 8 8 8 8 13 8 12 11 11 15 14 12 12 11 12 13 13 11 12 11 10 9 8 9 10 9 9 9 9
5 6 5 5 5 5 7 6 7 9 10 11 12 12 10 7 8 7 7 9 10 10 12 12 13 13 15 12 12 13 12 13 13 12 13 13 10 9 11 11 10 10 10 11
6 6 6 6 5 4 5 5 6 7 10 11 10 10 12 9 8 8 8 8 12 10 11 14 14 15 12 12 12 12 11 13 10 11 12 11 11 12 11 11 11 10 10 10
8 6 4 5 5 4 4 4 4 4 6 8 8 7 7 8 9 9 9 10 11 11 11 11 11 10 11 11 12 12 11 10 11 12 14 12 11 11 10 11 11 10 11 10
6 8 6 5 3 4 4 4 4 5 5 7 9 8 7 8 9 9 9 10 10 10 10 11 11 12 11 11 12 12 11 12 15 11 11 11 10 11 11 11 9 9 9 9
Wind_Direction
257 271 276 267 263 262 250 239 236 290 279 279 301 311 308 300 302 325 187 168 169 152 154 143 136 138 138 135 140 138 137 144 159 143 137 139 142 146 146 147 147 142 133 109
252 256 248 254 250 250 252 246 256 259 267 248 281 299 305 299 304 305 196 183 171 153 160 159 149 152 146 145 148 145 144 145 134 139 138 146 141 155 151 126 130 132 119 119
258 17 333 273 241 230 243 240 236 241 249 248 269 289 288 294 290 276 208 184 178 164 165 172 155 155 156 152 142 140 133 137 151 147 139 150 150 152 145 135 138 124 114 115
263 14 250 239 18 294 239 247 218 251 271 260 268 278 287 280 255 275 190 179 172 162 148 167 155 147 134 139 147 139 142 153 158 147 142 148 148 147 111 127 140 120 119 113
234 208 292 302 37 332 334 288 221 214 275 298 306 313 283 240 223 246 209 175 162 154 141 142 161 148 142 144 143 145 155 164 163 151 144 152 152 139 121 131 124 121 130 128
189 241 260 34 341 316 302 245 52 17 311 293 298 255 251 1 287 269 257 172 157 147 131 141 148 147 148 150 152 160 167 169 150 147 148 160 148 138 125 132 126 121 119 111
248 252 265 9 316 303 242 87 3 324 308 309 283 277 300 297 272 240 245 182 143 147 156 162 145 146 155 156 175 172 148 139 141 144 149 152 137 125 130 130 120 112 120 111
292 266 328 352 325 323 347 282 335 318 325 314 292 292 280 281 268 244 198 180 155 148 148 144 149 150 158 179 167 142 142 138 140 135 144 148 137 118 126 133 126 124 129 116
250 266 260 293 253 278 279 319 326 311 309 303 303 298 292 283 275 239 185 186 165 155 143 151 157 159 169 184 145 142 136 135 140 132 138 147 140 135 130 134 135 140 142 150
307 195 287 319 294 306 321 315 305 305 295 304 299 293 305 299 299 213 179 171 156 138 149 154 163 164 178 149 150 146 140 138 142 137 139 139 127 135 138 146 147 150 162 163
268 310 326 276 304 328 328 321 329 335 321 305 295 324 337 348 359 255 143 141 160 151 156 168 166 157 146 153 148 146 142 145 143 135 149 134 102 118 146 146 160 170 177 176
307 305 298 286 311 333 331 337 341 356 348 336 351 39 28 28 13 49 95 120 158 131 143 162 167 150 148 156 150 141 140 150 158 150 153 151 151 130 49 76 165 160 167 160
295 302 301 307 333 7 3 358 357 341 342 321 1 59 44 38 31 46 51 66 63 147 155 154 162 149 153 152 145 150 155 152 149 149 155 161 159 156 155 61 71 67 176 162
327 326 343 3 0 7 10 12 346 337 340 2 43 42 48 36 48 48 38 40 24 109 124 131 151 156 157 153 150 158 155 158 163 168 163 163 174 168 159 172 163 147 53 61
352 349 343 344 19 19 10 10 360 345 344 12 22 36 35 36 47 55 54 40 47 50 41 84 128 141 159 160 157 158 151 163 164 160 162 160 164 160 167 172 165 134 128 78
331 353 357 22 26 16 4 1 12 357 358 14 31 28 45 29 38 48 47 42 44 34 32 31 31 352 250 167 162 160 166 166 163 164 154 160 166 173 185 178 160 157 160 154
0 3 352 23 11 11 10 5 12 1 5 11 20 30 34 33 42 31 23 17 35 40 35 24 12 352 348 175 170 171 167 163 161 160 170 175 174 183 184 187 181 170 178 172
351 343 38 34 10 357 3 7 20 14 13 5 18 26 42 40 38 39 26 13 28 46 26 7 16 358 360 349 206 165 163 164 169 175 169 171 184 183 178 185 192 189 169 153
33 14 54 44 22 13 359 2 15 26 16 12 33 26 24 47 46 51 33 28 27 27 348 353 357 12 354 354 284 128 141 162 171 172 174 166 166 179 182 187 192 200 181 162
60 41 70 74 39 20 13 7 14 19 29 28 42 36 30 23 27 44 46 47 29 2 348 353 352 6 9 343 322 104 131 175 179 175 170 174 182 186 190 190 191 195 188 187
89 61 56 82 66 26 15 21 30 26 21 33 46 44 37 26 32 28 37 38 11 356 359 0 13 6 6 349 23 41 59 99 281 89 112 171 180 187 192 191 195 197 196 201
131 91 86 96 77 62 21 24 27 43 38 39 44 54 50 35 27 45 45 28 11 1 10 13 9 358 14 30 41 37 46 51 53 57 60 56 56 63 56 46 25 344 320 270
134 113 105 97 87 78 48 50 38 51 45 39 39 40 52 47 36 32 29 10 17 19 31 17 358 3 22 42 40 45 47 49 51 50 54 53 49 48 57 50 50 47 41 41
128 116 108 107 92 73 61 35 43 49 58 46 41 41 33 39 45 35 43 22 7 31 39 19 8 13 40 45 44 41 39 43 41 43 49 40 50 53 54 46 49 48 44 42
140 129 129 116 96 90 89 62 57 55 68 59 44 37 38 41 45 34 36 40 29 35 42 25 25 31 44 47 50 47 43 48 42 55 56 49 45 41 44 46 39 36 45 38
147 150 150 144 132 128 109 93 84 59 79 76 68 50 38 36 43 45 40 35 38 38 47 42 32 39 46 48 53 56 54 49 46 48 53 44 43 48 40 44 38 34 36 37
122 129 129 113 95 110 106 95 82 72 73 81 77 67 56 49 44 56 51 50 43 41 49 49 43 41 47 48 49 50 51 55 47 52 52 56 41 50 40 41 34 34 34 35